| time (UTC) | temp C | wind direction | speed KPH | gust KPH | rain 1hr cm | rain 24hr cm | rain mn cm | humidity % | barometer mb |
| 20260506114504 | 16 | 0 | 0.0 | 0.0 | 0.00 | 0.00 | 0.00 | 71 | 1008.4 |
| 20260506114004 | 16 | 0 | 0.0 | 0.0 | 0.00 | 0.00 | 0.00 | 70 | 1008.3 |
| 20260506113525 | 16 | 0 | 0.0 | 0.0 | 0.00 | 0.00 | 0.00 | 71 | 1008.4 |
| 20260506113004 | 16 | 0 | 0.0 | 0.0 | 0.00 | 0.00 | 0.00 | 71 | 1008.4 |
| 20260506112503 | 16 | 0 | 0.0 | 0.0 | 0.00 | 0.00 | 0.00 | 70 | 1008.3 |
| 20260506112004 | 16 | 0 | 0.0 | 0.0 | 0.00 | 0.00 | 0.00 | 70 | 1008.3 |
| 20260506111503 | 16 | 0 | 0.0 | 0.0 | 0.00 | 0.00 | 0.00 | 70 | 1008.3 |
| 20260506111004 | 16 | 0 | 0.0 | 0.0 | 0.00 | 0.00 | 0.00 | 69 | 1008.2 |
| 20260506110503 | 16 | 0 | 0.0 | 0.0 | 0.00 | 0.00 | 0.00 | 70 | 1008.3 |
| 20260506110025 | 16 | 0 | 0.0 | 0.0 | 0.00 | 0.00 | 0.00 | 69 | 1008.3 |
| 20260506105503 | 16 | 0 | 0.0 | 0.0 | 0.00 | 0.00 | 0.00 | 66 | 1008.4 |
| 20260506105004 | 16 | 0 | 0.0 | 0.0 | 0.00 | 0.00 | 0.00 | 66 | 1008.3 |
| 20260506104504 | 16 | 0 | 0.0 | 0.0 | 0.00 | 0.00 | 0.00 | 66 | 1008.2 |
| 20260506104024 | 16 | 0 | 0.0 | 0.0 | 0.00 | 0.00 | 0.00 | 67 | 1008.1 |
| 20260506103503 | 16 | 0 | 0.0 | 0.0 | 0.00 | 0.00 | 0.00 | 66 | 1008.1 |
| 20260506103003 | 16 | 0 | 0.0 | 0.0 | 0.00 | 0.00 | 0.00 | 68 | 1007.7 |
| 20260506102504 | 16 | 0 | 0.0 | 0.0 | 0.00 | 0.00 | 0.00 | 67 | 1007.9 |
| 20260506102004 | 16 | 0 | 0.0 | 0.0 | 0.00 | 0.00 | 0.00 | 67 | 1007.8 |
| 20260506101504 | 16 | 165 | 0.0 | 1.6 | 0.00 | 0.00 | 0.00 | 66 | 1007.9 |
| 20260506101004 | 16 | 165 | 0.0 | 1.6 | 0.00 | 0.00 | 0.00 | 66 | 1007.9 |
| 20260506100504 | 16 | 0 | 0.0 | 0.0 | 0.00 | 0.00 | 0.00 | 66 | 1007.8 |
| 20260506100004 | 16 | 0 | 0.0 | 0.0 | 0.00 | 0.00 | 0.00 | 66 | 1007.7 |
| 20260506095503 | 16 | 0 | 0.0 | 0.0 | 0.00 | 0.00 | 0.00 | 64 | 1007.8 |
| 20260506095024 | 16 | 0 | 0.0 | 0.0 | 0.00 | 0.00 | 0.00 | 63 | 1007.9 |
| 20260506094503 | 16 | 0 | 0.0 | 0.0 | 0.00 | 0.00 | 0.00 | 64 | 1008.0 |
| 20260506094003 | 16 | 0 | 0.0 | 0.0 | 0.00 | 0.00 | 0.00 | 64 | 1008.0 |
| 20260506093503 | 16 | 165 | 0.0 | 1.6 | 0.00 | 0.00 | 0.00 | 63 | 1007.9 |
| 20260506093004 | 16 | 165 | 0.0 | 1.6 | 0.00 | 0.00 | 0.00 | 64 | 1007.9 |
| 20260506092503 | 16 | 165 | 0.0 | 1.6 | 0.00 | 0.00 | 0.00 | 65 | 1007.8 |
| 20260506092003 | 16 | 0 | 0.0 | 0.0 | 0.00 | 0.00 | 0.00 | 64 | 1007.9 |
| 20260506091525 | 16 | 0 | 0.0 | 0.0 | 0.00 | 0.00 | 0.00 | 63 | 1007.9 |
| 20260506091003 | 16 | 165 | 0.0 | 1.6 | 0.00 | 0.00 | 0.00 | 64 | 1007.9 |
| 20260506090503 | 16 | 165 | 0.0 | 1.6 | 0.00 | 0.00 | 0.00 | 65 | 1007.9 |
| 20260506090004 | 16 | 166 | 0.0 | 4.8 | 0.00 | 0.00 | 0.00 | 64 | 1008.0 |
| 20260506085503 | 16 | 168 | 0.0 | 4.8 | 0.00 | 0.00 | 0.00 | 63 | 1008.1 |
| 20260506085003 | 16 | 169 | 0.0 | 4.8 | 0.00 | 0.00 | 0.00 | 65 | 1008.1 |
| 20260506084503 | 16 | 169 | 0.0 | 4.8 | 0.00 | 0.00 | 0.00 | 63 | 1008.3 |
| 20260506084003 | 16 | 169 | 1.6 | 4.8 | 0.00 | 0.00 | 0.00 | 66 | 1008.1 |
| 20260506083503 | 16 | 169 | 0.0 | 4.8 | 0.00 | 0.00 | 0.00 | 65 | 1008.2 |
| 20260506083004 | 16 | 169 | 0.0 | 1.6 | 0.00 | 0.00 | 0.00 | 62 | 1008.5 |
| 20260506082503 | 16 | 169 | 0.0 | 1.6 | 0.00 | 0.00 | 0.00 | 62 | 1008.3 |
| 20260506082024 | 16 | 169 | 0.0 | 1.6 | 0.00 | 0.00 | 0.00 | 62 | 1008.3 |
| 20260506081503 | 16 | 169 | 1.6 | 4.8 | 0.00 | 0.00 | 0.00 | 62 | 1008.2 |
| 20260506081003 | 16 | 169 | 1.6 | 4.8 | 0.00 | 0.00 | 0.00 | 62 | 1008.1 |
| 20260506080525 | 16 | 169 | 0.0 | 4.8 | 0.00 | 0.00 | 0.00 | 61 | 1008.1 |
| 20260506073503 | 16 | 0 | 0.0 | 0.0 | 0.00 | 0.00 | 0.00 | 64 | 1008.0 |
| 20260506073003 | 16 | 169 | 0.0 | 1.6 | 0.00 | 0.00 | 0.00 | 63 | 1008.1 |
| 20260506072524 | 16 | 169 | 0.0 | 1.6 | 0.00 | 0.00 | 0.00 | 62 | 1008.1 |
| 20260506072003 | 16 | 169 | 0.0 | 1.6 | 0.00 | 0.00 | 0.00 | 63 | 1008.3 |
| 20260506071503 | 16 | 169 | 0.0 | 4.8 | 0.00 | 0.00 | 0.00 | 63 | 1008.3 |
| 20260506071024 | 16 | 169 | 0.0 | 4.8 | 0.00 | 0.00 | 0.00 | 64 | 1008.4 |
| 20260506070504 | 16 | 169 | 0.0 | 4.8 | 0.00 | 0.00 | 0.00 | 63 | 1008.5 |
| 20260506062503 | 16 | 0 | 0.0 | 0.0 | 0.00 | 0.00 | 0.00 | 66 | 1008.7 |
| 20260506062003 | 16 | 0 | 0.0 | 0.0 | 0.00 | 0.00 | 0.00 | 66 | 1008.7 |
| 20260506061524 | 15 | 0 | 0.0 | 0.0 | 0.00 | 0.00 | 0.00 | 66 | 1008.7 |
| 20260506061024 | 16 | 0 | 0.0 | 0.0 | 0.00 | 0.00 | 0.00 | 67 | 1008.8 |
| 20260506060503 | 16 | 0 | 0.0 | 0.0 | 0.00 | 0.00 | 0.00 | 69 | 1008.7 |
| 20260506051026 | 16 | 0 | 0.0 | 0.0 | 0.00 | 0.00 | 0.00 | 68 | 1009.4 |
| 20260506050505 | 16 | 0 | 0.0 | 0.0 | 0.00 | 0.00 | 0.00 | 68 | 1009.4 |
| 20260506045005 | 16 | 0 | 0.0 | 0.0 | 0.00 | 0.00 | 0.00 | 68 | 1009.3 |
| 20260506044505 | 16 | 0 | 0.0 | 0.0 | 0.00 | 0.00 | 0.00 | 69 | 1009.2 |
| 20260506044005 | 16 | 0 | 0.0 | 0.0 | 0.00 | 0.00 | 0.00 | 69 | 1009.2 |
| 20260506043505 | 16 | 0 | 0.0 | 0.0 | 0.00 | 0.00 | 0.00 | 70 | 1009.2 |
| 20260506043005 | 16 | 0 | 0.0 | 0.0 | 0.00 | 0.00 | 0.00 | 70 | 1009.3 |
| 20260506042505 | 16 | 0 | 0.0 | 0.0 | 0.00 | 0.00 | 0.00 | 70 | 1009.3 |
| 20260506042026 | 16 | 0 | 0.0 | 0.0 | 0.00 | 0.00 | 0.00 | 70 | 1009.5 |
| 20260506041505 | 16 | 0 | 0.0 | 0.0 | 0.00 | 0.00 | 0.00 | 69 | 1009.5 |
| 20260506041005 | 16 | 0 | 0.0 | 0.0 | 0.00 | 0.00 | 0.00 | 69 | 1009.5 |
| 20260506040505 | 16 | 0 | 0.0 | 0.0 | 0.00 | 0.00 | 0.00 | 69 | 1009.5 |
| 20260506040005 | 16 | 0 | 0.0 | 0.0 | 0.00 | 0.00 | 0.00 | 69 | 1009.6 |
| 20260506035505 | 17 | 0 | 0.0 | 0.0 | 0.00 | 0.00 | 0.00 | 68 | 1009.6 |
| 20260506035026 | 17 | 0 | 0.0 | 0.0 | 0.00 | 0.00 | 0.00 | 68 | 1009.7 |
| 20260506034505 | 17 | 0 | 0.0 | 0.0 | 0.00 | 0.00 | 0.00 | 68 | 1009.5 |
| 20260506034005 | 17 | 0 | 0.0 | 0.0 | 0.00 | 0.00 | 0.00 | 67 | 1009.7 |
| 20260506033505 | 17 | 173 | 0.0 | 4.8 | 0.00 | 0.00 | 0.00 | 68 | 1009.6 |
| 20260506033005 | 17 | 175 | 0.0 | 4.8 | 0.00 | 0.00 | 0.00 | 67 | 1009.7 |
| 20260506032505 | 17 | 179 | 0.0 | 4.8 | 0.00 | 0.00 | 0.00 | 67 | 1009.6 |
| 20260506032005 | 17 | 0 | 0.0 | 0.0 | 0.00 | 0.00 | 0.00 | 67 | 1009.6 |
| 20260506031505 | 17 | 0 | 0.0 | 0.0 | 0.00 | 0.00 | 0.00 | 67 | 1009.7 |
| 20260506031005 | 17 | 0 | 0.0 | 0.0 | 0.00 | 0.00 | 0.00 | 67 | 1009.7 |
| 20260506030505 | 17 | 0 | 0.0 | 0.0 | 0.00 | 0.00 | 0.00 | 66 | 1009.5 |
| 20260506030005 | 17 | 0 | 0.0 | 0.0 | 0.00 | 0.00 | 0.00 | 66 | 1009.5 |
| 20260506025505 | 17 | 0 | 0.0 | 0.0 | 0.00 | 0.00 | 0.00 | 66 | 1009.5 |
| 20260506025005 | 17 | 0 | 0.0 | 0.0 | 0.00 | 0.00 | 0.00 | 66 | 1009.5 |
| 20260506024505 | 17 | 0 | 0.0 | 0.0 | 0.00 | 0.00 | 0.00 | 65 | 1009.5 |
| 20260506024005 | 17 | 0 | 0.0 | 0.0 | 0.00 | 0.00 | 0.00 | 65 | 1009.5 |
| 20260506023505 | 17 | 0 | 0.0 | 0.0 | 0.00 | 0.00 | 0.00 | 66 | 1009.4 |
| 20260506023026 | 17 | 0 | 0.0 | 0.0 | 0.00 | 0.00 | 0.00 | 65 | 1009.4 |
| 20260506022505 | 18 | 0 | 0.0 | 0.0 | 0.00 | 0.00 | 0.00 | 65 | 1009.3 |
| 20260506022005 | 18 | 0 | 0.0 | 0.0 | 0.00 | 0.00 | 0.00 | 65 | 1009.4 |
| 20260506021526 | 18 | 0 | 0.0 | 0.0 | 0.00 | 0.00 | 0.00 | 64 | 1009.3 |
| 20260506021005 | 18 | 0 | 0.0 | 0.0 | 0.00 | 0.00 | 0.00 | 65 | 1009.4 |
| 20260506020505 | 18 | 0 | 0.0 | 0.0 | 0.00 | 0.00 | 0.00 | 64 | 1009.4 |
| 20260506020005 | 18 | 0 | 0.0 | 0.0 | 0.00 | 0.00 | 0.00 | 63 | 1009.4 |
| 20260506015505 | 18 | 0 | 0.0 | 0.0 | 0.00 | 0.00 | 0.00 | 63 | 1009.4 |
| 20260506015005 | 18 | 0 | 0.0 | 0.0 | 0.00 | 0.00 | 0.00 | 62 | 1009.4 |
| 20260506014505 | 18 | 0 | 0.0 | 0.0 | 0.00 | 0.00 | 0.00 | 62 | 1009.4 |
| 20260506014026 | 19 | 0 | 0.0 | 0.0 | 0.00 | 0.00 | 0.00 | 61 | 1009.4 |
| 20260506013504 | 19 | 0 | 0.0 | 0.0 | 0.00 | 0.00 | 0.00 | 61 | 1009.3 |
| 20260506013027 | 19 | 0 | 0.0 | 0.0 | 0.00 | 0.00 | 0.00 | 60 | 1009.3 |
| 20260506012505 | 19 | 0 | 0.0 | 0.0 | 0.00 | 0.00 | 0.00 | 59 | 1009.2 |
| 20260506012004 | 19 | 0 | 0.0 | 0.0 | 0.00 | 0.00 | 0.00 | 58 | 1009.1 |
| 20260506011505 | 20 | 0 | 0.0 | 0.0 | 0.00 | 0.00 | 0.00 | 58 | 1009.0 |
| 20260506011005 | 20 | 0 | 0.0 | 0.0 | 0.00 | 0.00 | 0.00 | 58 | 1008.9 |
| 20260506010505 | 20 | 0 | 0.0 | 0.0 | 0.00 | 0.00 | 0.00 | 57 | 1008.8 |
| 20260506010004 | 20 | 0 | 0.0 | 0.0 | 0.00 | 0.00 | 0.00 | 57 | 1008.8 |
| 20260506005504 | 20 | 0 | 0.0 | 0.0 | 0.00 | 0.00 | 0.00 | 56 | 1008.7 |
| 20260506005005 | 20 | 0 | 0.0 | 0.0 | 0.00 | 0.00 | 0.00 | 56 | 1008.7 |
| 20260506004505 | 20 | 0 | 0.0 | 0.0 | 0.00 | 0.00 | 0.00 | 55 | 1008.6 |
| 20260506004005 | 20 | 0 | 0.0 | 0.0 | 0.00 | 0.00 | 0.00 | 56 | 1008.6 |
| 20260506003505 | 21 | 0 | 0.0 | 0.0 | 0.00 | 0.00 | 0.00 | 55 | 1008.5 |
| 20260506003005 | 21 | 0 | 0.0 | 0.0 | 0.00 | 0.00 | 0.00 | 54 | 1008.5 |
| 20260506002504 | 21 | 0 | 0.0 | 0.0 | 0.00 | 0.00 | 0.00 | 53 | 1008.6 |
| 20260506002005 | 21 | 0 | 0.0 | 0.0 | 0.00 | 0.00 | 0.00 | 53 | 1008.6 |
| 20260506001504 | 21 | 0 | 0.0 | 0.0 | 0.00 | 0.00 | 0.00 | 54 | 1008.6 |
| 20260506001005 | 21 | 0 | 0.0 | 0.0 | 0.00 | 0.00 | 0.00 | 54 | 1008.5 |
| 20260506000505 | 21 | 0 | 0.0 | 0.0 | 0.00 | 0.00 | 0.00 | 53 | 1008.5 |
| 20260506000005 | 21 | 0 | 0.0 | 0.0 | 0.00 | 0.00 | 0.00 | 52 | 1008.4 |
| 20260505235505 | 21 | 0 | 0.0 | 0.0 | 0.00 | 0.00 | 0.00 | 53 | 1008.4 |
| 20260505235005 | 21 | 0 | 0.0 | 0.0 | 0.00 | 0.00 | 0.00 | 54 | 1008.4 |
| 20260505234504 | 21 | 0 | 0.0 | 0.0 | 0.00 | 0.00 | 0.00 | 52 | 1008.3 |
| 20260505234005 | 21 | 0 | 0.0 | 0.0 | 0.00 | 0.00 | 0.00 | 50 | 1008.2 |
| 20260505233504 | 21 | 0 | 0.0 | 0.0 | 0.00 | 0.00 | 0.00 | 50 | 1008.2 |
| 20260505233004 | 22 | 0 | 0.0 | 0.0 | 0.00 | 0.00 | 0.00 | 53 | 1008.3 |
| 20260505232504 | 22 | 0 | 0.0 | 0.0 | 0.00 | 0.00 | 0.00 | 51 | 1008.2 |
| 20260505232004 | 22 | 214 | 0.0 | 1.6 | 0.00 | 0.00 | 0.00 | 53 | 1008.1 |
| 20260505231504 | 22 | 214 | 0.0 | 4.8 | 0.00 | 0.00 | 0.00 | 52 | 1008.2 |
| 20260505231004 | 22 | 214 | 0.0 | 4.8 | 0.00 | 0.00 | 0.00 | 51 | 1008.1 |
| 20260505230504 | 22 | 214 | 0.0 | 1.6 | 0.00 | 0.00 | 0.00 | 53 | 1008.1 |
| 20260505230005 | 22 | 214 | 0.0 | 4.8 | 0.00 | 0.00 | 0.00 | 52 | 1008.1 |
| 20260505225504 | 22 | 214 | 0.0 | 4.8 | 0.00 | 0.00 | 0.00 | 51 | 1008.1 |
| 20260505225026 | 22 | 216 | 0.0 | 4.8 | 0.00 | 0.00 | 0.00 | 50 | 1008.1 |
| 20260505224505 | 22 | 216 | 0.0 | 4.8 | 0.00 | 0.00 | 0.00 | 50 | 1008.0 |
| 20260505224005 | 22 | 212 | 0.0 | 4.8 | 0.00 | 0.00 | 0.00 | 51 | 1008.1 |
| 20260505223505 | 22 | 209 | 0.0 | 4.8 | 0.00 | 0.00 | 0.00 | 50 | 1007.9 |
| 20260505223005 | 22 | 205 | 0.0 | 4.8 | 0.00 | 0.00 | 0.00 | 51 | 1007.9 |
| 20260505222526 | 22 | 201 | 0.0 | 1.6 | 0.00 | 0.00 | 0.00 | 51 | 1007.8 |
| 20260505222004 | 22 | 199 | 0.0 | 1.6 | 0.00 | 0.00 | 0.00 | 50 | 1007.6 |
| 20260505221504 | 23 | 194 | 1.6 | 6.4 | 0.00 | 0.00 | 0.00 | 50 | 1007.7 |
| 20260505221025 | 23 | 196 | 1.6 | 6.4 | 0.00 | 0.00 | 0.00 | 49 | 1007.7 |
| 20260505220504 | 23 | 203 | 1.6 | 14.5 | 0.00 | 0.00 | 0.00 | 50 | 1007.7 |
| 20260505220004 | 23 | 202 | 4.8 | 14.5 | 0.00 | 0.00 | 0.00 | 51 | 1007.8 |
| 20260505215505 | 23 | 210 | 4.8 | 20.9 | 0.00 | 0.00 | 0.00 | 48 | 1007.7 |
| 20260505215004 | 23 | 207 | 6.4 | 25.7 | 0.00 | 0.00 | 0.00 | 49 | 1007.6 |
| 20260505214504 | 23 | 199 | 6.4 | 25.7 | 0.00 | 0.00 | 0.00 | 49 | 1007.5 |
| 20260505214026 | 23 | 199 | 4.8 | 14.5 | 0.00 | 0.00 | 0.00 | 51 | 1007.6 |
| 20260505213504 | 23 | 209 | 4.8 | 11.3 | 0.00 | 0.00 | 0.00 | 50 | 1007.7 |
| 20260505213004 | 23 | 215 | 4.8 | 11.3 | 0.00 | 0.00 | 0.00 | 49 | 1007.6 |
| 20260505212504 | 23 | 219 | 4.8 | 14.5 | 0.00 | 0.00 | 0.00 | 49 | 1007.6 |
| 20260505212004 | 24 | 232 | 4.8 | 16.1 | 0.00 | 0.00 | 0.00 | 46 | 1007.6 |
| 20260505211504 | 24 | 230 | 4.8 | 16.1 | 0.00 | 0.00 | 0.00 | 46 | 1007.4 |
| 20260505211004 | 24 | 222 | 6.4 | 16.1 | 0.00 | 0.00 | 0.00 | 46 | 1007.4 |
| 20260505210504 | 24 | 210 | 4.8 | 16.1 | 0.00 | 0.00 | 0.00 | 46 | 1007.5 |
| 20260505210004 | 25 | 208 | 6.4 | 16.1 | 0.00 | 0.00 | 0.00 | 47 | 1007.5 |
| 20260505205504 | 24 | 198 | 9.7 | 22.5 | 0.00 | 0.00 | 0.00 | 46 | 1007.5 |
| 20260505205004 | 25 | 197 | 11.3 | 22.5 | 0.00 | 0.00 | 0.00 | 43 | 1007.4 |
| 20260505204504 | 25 | 212 | 11.3 | 37.0 | 0.00 | 0.00 | 0.00 | 45 | 1007.5 |
| 20260505204005 | 25 | 216 | 9.7 | 37.0 | 0.00 | 0.00 | 0.00 | 42 | 1007.2 |
| 20260505203504 | 24 | 214 | 9.7 | 22.5 | 0.00 | 0.00 | 0.00 | 41 | 1007.2 |
| 20260505203004 | 24 | 215 | 9.7 | 27.4 | 0.00 | 0.00 | 0.00 | 45 | 1007.1 |
| 20260505202504 | 24 | 208 | 11.3 | 27.4 | 0.00 | 0.00 | 0.00 | 43 | 1007.1 |
| 20260505202004 | 24 | 212 | 11.3 | 25.7 | 0.00 | 0.00 | 0.00 | 43 | 1007.2 |
| 20260505201504 | 24 | 223 | 11.3 | 30.6 | 0.00 | 0.00 | 0.00 | 41 | 1007.2 |
| 20260505201004 | 24 | 229 | 9.7 | 30.6 | 0.00 | 0.00 | 0.00 | 43 | 1007.2 |
| 20260505200504 | 24 | 219 | 9.7 | 25.7 | 0.00 | 0.00 | 0.00 | 45 | 1007.2 |
| 20260505200004 | 24 | 207 | 14.5 | 37.0 | 0.00 | 0.00 | 0.00 | 43 | 1007.2 |
| 20260505195504 | 24 | 200 | 14.5 | 37.0 | 0.00 | 0.00 | 0.00 | 43 | 1007.1 |
| 20260505195004 | 25 | 190 | 14.5 | 32.2 | 0.00 | 0.00 | 0.00 | 42 | 1007.1 |
| 20260505194504 | 25 | 183 | 14.5 | 32.2 | 0.00 | 0.00 | 0.00 | 41 | 1006.9 |
| 20260505194025 | 26 | 187 | 14.5 | 32.2 | 0.00 | 0.00 | 0.00 | 41 | 1006.8 |
| 20260505193504 | 26 | 206 | 11.3 | 25.7 | 0.00 | 0.00 | 0.00 | 39 | 1007.0 |
| 20260505193004 | 26 | 204 | 11.3 | 35.4 | 0.00 | 0.00 | 0.00 | 46 | 1007.1 |
| 20260505192525 | 26 | 194 | 11.3 | 35.4 | 0.00 | 0.00 | 0.00 | 42 | 1007.1 |
| 20260505192004 | 26 | 198 | 11.3 | 27.4 | 0.00 | 0.00 | 0.00 | 41 | 1007.1 |
| 20260505191525 | 26 | 196 | 14.5 | 27.4 | 0.00 | 0.00 | 0.00 | 43 | 1007.2 |
| 20260505191004 | 26 | 195 | 14.5 | 27.4 | 0.00 | 0.00 | 0.00 | 40 | 1007.2 |
| 20260505190504 | 27 | 197 | 9.7 | 25.7 | 0.00 | 0.00 | 0.00 | 42 | 1007.2 |
| 20260505190004 | 26 | 192 | 9.7 | 20.9 | 0.00 | 0.00 | 0.00 | 42 | 1007.4 |
| 20260505185504 | 26 | 202 | 11.3 | 22.5 | 0.00 | 0.00 | 0.00 | 40 | 1007.4 |
| 20260505185004 | 26 | 207 | 11.3 | 32.2 | 0.00 | 0.00 | 0.00 | 43 | 1007.6 |
| 20260505184504 | 26 | 201 | 11.3 | 32.2 | 0.00 | 0.00 | 0.00 | 41 | 1007.7 |
| 20260505184004 | 26 | 209 | 9.7 | 27.4 | 0.00 | 0.00 | 0.00 | 39 | 1007.8 |
| 20260505183525 | 26 | 222 | 9.7 | 27.4 | 0.00 | 0.00 | 0.00 | 42 | 1007.7 |
| 20260505183025 | 26 | 219 | 11.3 | 32.2 | 0.00 | 0.00 | 0.00 | 42 | 1007.8 |
| 20260505182525 | 26 | 197 | 14.5 | 37.0 | 0.00 | 0.00 | 0.00 | 43 | 1008.1 |
| 20260505182004 | 26 | 187 | 14.5 | 41.8 | 0.00 | 0.00 | 0.00 | 39 | 1008.2 |
| 20260505181525 | 26 | 192 | 11.3 | 41.8 | 0.00 | 0.00 | 0.00 | 40 | 1008.1 |
| 20260505181004 | 26 | 199 | 11.3 | 27.4 | 0.00 | 0.00 | 0.00 | 45 | 1008.2 |
| 20260505180504 | 26 | 193 | 14.5 | 27.4 | 0.00 | 0.00 | 0.00 | 42 | 1008.5 |
| 20260505180004 | 26 | 192 | 11.3 | 27.4 | 0.00 | 0.00 | 0.00 | 42 | 1008.4 |
| 20260505175504 | 26 | 206 | 9.7 | 25.7 | 0.00 | 0.00 | 0.00 | 41 | 1008.5 |
| 20260505175004 | 26 | 205 | 9.7 | 25.7 | 0.00 | 0.00 | 0.00 | 44 | 1008.5 |
| 20260505174525 | 26 | 189 | 9.7 | 27.4 | 0.00 | 0.00 | 0.00 | 43 | 1008.6 |
| 20260505174004 | 25 | 201 | 9.7 | 27.4 | 0.00 | 0.00 | 0.00 | 46 | 1008.5 |
| 20260505173504 | 25 | 206 | 11.3 | 27.4 | 0.00 | 0.00 | 0.00 | 45 | 1008.7 |
| 20260505173005 | 25 | 196 | 9.7 | 27.4 | 0.00 | 0.00 | 0.00 | 46 | 1008.5 |
| 20260505172505 | 25 | 203 | 9.7 | 32.2 | 0.00 | 0.00 | 0.00 | 46 | 1008.4 |
| 20260505172004 | 26 | 198 | 9.7 | 32.2 | 0.00 | 0.00 | 0.00 | 45 | 1008.4 |
| 20260505171504 | 25 | 209 | 9.7 | 25.7 | 0.00 | 0.00 | 0.00 | 44 | 1008.3 |
| 20260505171004 | 25 | 223 | 9.7 | 25.7 | 0.00 | 0.00 | 0.00 | 47 | 1008.5 |
| 20260505170504 | 25 | 200 | 9.7 | 35.4 | 0.00 | 0.00 | 0.00 | 44 | 1008.6 |
| 20260505170025 | 25 | 183 | 11.3 | 35.4 | 0.00 | 0.00 | 0.00 | 47 | 1008.6 |
| 20260505165504 | 25 | 186 | 11.3 | 35.4 | 0.00 | 0.00 | 0.00 | 47 | 1008.7 |
| 20260505165025 | 25 | 201 | 11.3 | 32.2 | 0.00 | 0.00 | 0.00 | 44 | 1008.7 |
| 20260505164504 | 25 | 194 | 11.3 | 32.2 | 0.00 | 0.00 | 0.00 | 47 | 1008.9 |
| 20260505164004 | 25 | 195 | 9.7 | 27.4 | 0.00 | 0.00 | 0.00 | 47 | 1008.7 |
| 20260505163504 | 25 | 234 | 6.4 | 27.4 | 0.00 | 0.00 | 0.00 | 48 | 1008.9 |
| 20260505163025 | 25 | 217 | 6.4 | 22.5 | 0.00 | 0.00 | 0.00 | 45 | 1009.0 |
| 20260505162504 | 25 | 202 | 9.7 | 22.5 | 0.00 | 0.00 | 0.00 | 48 | 1009.1 |
| 20260505162004 | 25 | 205 | 6.4 | 22.5 | 0.00 | 0.00 | 0.00 | 48 | 1009.0 |
| 20260505161504 | 25 | 211 | 6.4 | 22.5 | 0.00 | 0.00 | 0.00 | 50 | 1009.1 |
| 20260505161025 | 25 | 227 | 6.4 | 22.5 | 0.00 | 0.00 | 0.00 | 48 | 1009.1 |
| 20260505160504 | 25 | 224 | 9.7 | 22.5 | 0.00 | 0.00 | 0.00 | 50 | 1009.1 |
| 20260505153004 | 24 | 186 | 11.3 | 22.5 | 0.00 | 0.00 | 0.00 | 53 | 1009.4 |
| 20260505152505 | 23 | 183 | 9.7 | 22.5 | 0.00 | 0.00 | 0.00 | 51 | 1009.4 |
| 20260505152004 | 23 | 192 | 9.7 | 20.9 | 0.00 | 0.00 | 0.00 | 50 | 1009.5 |
| 20260505151525 | 23 | 196 | 6.4 | 20.9 | 0.00 | 0.00 | 0.00 | 52 | 1009.6 |
| 20260505151004 | 23 | 191 | 9.7 | 35.4 | 0.00 | 0.00 | 0.00 | 54 | 1009.5 |
| 20260505150504 | 23 | 192 | 6.4 | 35.4 | 0.00 | 0.00 | 0.00 | 52 | 1009.5 |
| 20260505140504 | 20 | 189 | 4.8 | 11.3 | 0.00 | 0.00 | 0.00 | 63 | 1010.0 |
| 20260505125025 | 17 | 197 | 6.4 | 19.3 | 0.00 | 0.00 | 0.00 | 67 | 1010.6 |
| 20260505124503 | 17 | 200 | 6.4 | 19.3 | 0.00 | 0.00 | 0.00 | 70 | 1010.4 |
| 20260505124004 | 17 | 187 | 6.4 | 19.3 | 0.00 | 0.00 | 0.00 | 68 | 1010.4 |
| 20260505123504 | 17 | 192 | 6.4 | 14.5 | 0.00 | 0.00 | 0.00 | 68 | 1010.6 |
| 20260505123004 | 16 | 206 | 6.4 | 14.5 | 0.00 | 0.00 | 0.00 | 71 | 1010.4 |
| 20260505122503 | 16 | 207 | 6.4 | 16.1 | 0.00 | 0.00 | 0.00 | 73 | 1010.3 |
| 20260505122004 | 16 | 201 | 6.4 | 16.1 | 0.00 | 0.00 | 0.00 | 75 | 1010.4 |
| 20260505121525 | 16 | 194 | 6.4 | 16.1 | 0.00 | 0.00 | 0.00 | 74 | 1010.4 |
| 20260505121024 | 16 | 185 | 4.8 | 16.1 | 0.00 | 0.00 | 0.00 | 76 | 1010.4 |
| 20260505120503 | 15 | 172 | 4.8 | 9.7 | 0.00 | 0.00 | 0.00 | 73 | 1010.2 |
| 20260505120004 | 15 | 172 | 1.6 | 9.7 | 0.00 | 0.00 | 0.00 | 73 | 1010.3 |
| 20260505115503 | 15 | 170 | 1.6 | 20.9 | 0.00 | 0.00 | 0.00 | 73 | 1010.3 |
| 20260505115004 | 15 | 170 | 1.6 | 20.9 | 0.00 | 0.00 | 0.00 | 73 | 1010.2 |